| time (UTC) | temp C | wind direction | speed KPH | gust KPH | rain 1hr cm | rain 24hr cm | rain mn cm | humidity % | barometer mb |
| 20260505053814 | 11 | 17 | 12.9 | 27.4 | 0.00 | 0.00 | 0.00 | 39 | 1008.7 |
| 20260505053300 | 11 | 32 | 14.5 | 29.0 | 0.00 | 0.00 | 0.00 | 38 | 1008.7 |
| 20260505052743 | 11 | 70 | 17.7 | 29.0 | 0.00 | 0.00 | 0.00 | 38 | 1008.6 |
| 20260505052249 | 11 | 22 | 12.9 | 25.7 | 0.00 | 0.00 | 0.00 | 38 | 1008.6 |
| 20260505051814 | 11 | 31 | 16.1 | 27.4 | 0.00 | 0.00 | 0.00 | 37 | 1008.6 |
| 20260505051316 | 11 | 4 | 14.5 | 27.4 | 0.00 | 0.00 | 0.00 | 37 | 1008.5 |
| 20260505050756 | 12 | 30 | 12.9 | 32.2 | 0.00 | 0.00 | 0.00 | 37 | 1008.4 |
| 20260505050320 | 12 | 10 | 11.3 | 32.2 | 0.00 | 0.00 | 0.00 | 36 | 1008.4 |
| 20260505041740 | 13 | 57 | 12.9 | 19.3 | 0.00 | 0.00 | 0.00 | 33 | 1008.1 |
| 20260505041248 | 13 | 48 | 4.8 | 17.7 | 0.00 | 0.00 | 0.00 | 33 | 1007.8 |
| 20260505040752 | 13 | 53 | 9.7 | 27.4 | 0.00 | 0.00 | 0.00 | 32 | 1007.6 |
| 20260505040316 | 13 | 22 | 12.9 | 27.4 | 0.00 | 0.00 | 0.00 | 31 | 1007.4 |
| 20260505035819 | 13 | 25 | 9.7 | 16.1 | 0.00 | 0.00 | 0.00 | 31 | 1007.3 |
| 20260505035244 | 13 | 39 | 8.0 | 16.1 | 0.00 | 0.00 | 0.00 | 31 | 1007.1 |
| 20260505034747 | 14 | 54 | 8.0 | 12.9 | 0.00 | 0.00 | 0.00 | 30 | 1007.0 |
| 20260505034257 | 14 | 38 | 3.2 | 14.5 | 0.00 | 0.00 | 0.00 | 29 | 1007.0 |
| 20260505033739 | 14 | 52 | 3.2 | 8.0 | 0.00 | 0.00 | 0.00 | 28 | 1006.9 |
| 20260505033247 | 15 | 20 | 4.8 | 8.0 | 0.00 | 0.00 | 0.00 | 28 | 1006.8 |
| 20260505032754 | 15 | 28 | 3.2 | 6.4 | 0.00 | 0.00 | 0.00 | 29 | 1006.6 |
| 20260505032304 | 15 | 28 | 0.0 | 3.2 | 0.00 | 0.00 | 0.00 | 32 | 1006.5 |
| 20260505031746 | 15 | 28 | 0.0 | 3.2 | 0.00 | 0.00 | 0.00 | 29 | 1006.5 |
| 20260505031313 | 15 | 28 | 1.6 | 4.8 | 0.00 | 0.00 | 0.00 | 28 | 1006.4 |
| 20260505030756 | 15 | 28 | 1.6 | 6.4 | 0.00 | 0.00 | 0.00 | 26 | 1006.4 |
| 20260505030245 | 15 | 28 | 3.2 | 8.0 | 0.00 | 0.00 | 0.00 | 26 | 1006.3 |
| 20260505025748 | 15 | 39 | 3.2 | 8.0 | 0.00 | 0.00 | 0.00 | 25 | 1006.3 |
| 20260505025253 | 16 | 62 | 3.2 | 9.7 | 0.00 | 0.00 | 0.00 | 26 | 1006.2 |
| 20260505024740 | 16 | 22 | 4.8 | 16.1 | 0.00 | 0.00 | 0.00 | 24 | 1006.1 |
| 20260505024246 | 16 | 49 | 6.4 | 16.1 | 0.00 | 0.00 | 0.00 | 23 | 1006.1 |
| 20260505023750 | 16 | 35 | 4.8 | 14.5 | 0.00 | 0.00 | 0.00 | 24 | 1005.9 |
| 20260505023257 | 16 | 68 | 6.4 | 11.3 | 0.00 | 0.00 | 0.00 | 23 | 1005.9 |
| 20260505022800 | 16 | 41 | 4.8 | 11.3 | 0.00 | 0.00 | 0.00 | 24 | 1005.9 |
| 20260505022245 | 16 | 33 | 4.8 | 14.5 | 0.00 | 0.00 | 0.00 | 24 | 1005.8 |
| 20260505021749 | 16 | 55 | 8.0 | 17.7 | 0.00 | 0.00 | 0.00 | 24 | 1005.7 |
| 20260505021257 | 16 | 73 | 9.7 | 17.7 | 0.00 | 0.00 | 0.00 | 24 | 1005.7 |
| 20260505020255 | 17 | 70 | 8.0 | 19.3 | 0.00 | 0.00 | 0.00 | 25 | 1005.5 |
| 20260505015819 | 17 | 22 | 9.7 | 27.4 | 0.00 | 0.00 | 0.00 | 24 | 1005.5 |
| 20260505015246 | 17 | 65 | 12.9 | 27.4 | 0.00 | 0.00 | 0.00 | 24 | 1005.4 |
| 20260505014750 | 17 | 73 | 14.5 | 24.1 | 0.00 | 0.00 | 0.00 | 27 | 1005.4 |
| 20260505014313 | 17 | 5 | 3.2 | 6.4 | 0.00 | 0.00 | 0.00 | 37 | 1005.3 |
| 20260505013816 | 17 | 24 | 4.8 | 6.4 | 0.00 | 0.00 | 0.00 | 34 | 1005.3 |
| 20260505013323 | 18 | 33 | 3.2 | 6.4 | 0.00 | 0.00 | 0.00 | 31 | 1005.2 |
| 20260505012805 | 18 | 258 | 1.6 | 4.8 | 0.00 | 0.00 | 0.00 | 30 | 1005.1 |
| 20260505012251 | 18 | 258 | 1.6 | 3.2 | 0.00 | 0.00 | 0.00 | 32 | 1005.2 |
| 20260505011756 | 18 | 175 | 1.6 | 3.2 | 0.00 | 0.00 | 0.00 | 31 | 1005.2 |
| 20260505011303 | 18 | 175 | 1.6 | 4.8 | 0.00 | 0.00 | 0.00 | 30 | 1005.1 |
| 20260505010745 | 18 | 124 | 1.6 | 4.8 | 0.00 | 0.00 | 0.00 | 29 | 1005.1 |
| 20260505010252 | 18 | 143 | 3.2 | 6.4 | 0.00 | 0.00 | 0.00 | 33 | 1005.2 |
| 20260505005755 | 18 | 153 | 3.2 | 8.0 | 0.00 | 0.00 | 0.00 | 32 | 1005.1 |
| 20260505005243 | 18 | 149 | 3.2 | 8.0 | 0.00 | 0.00 | 0.00 | 31 | 1005.0 |
| 20260505004808 | 18 | 128 | 4.8 | 8.0 | 0.00 | 0.00 | 0.00 | 33 | 1005.1 |
| 20260505004254 | 18 | 162 | 3.2 | 9.7 | 0.00 | 0.00 | 0.00 | 33 | 1005.1 |
| 20260505003757 | 18 | 132 | 4.8 | 8.0 | 0.00 | 0.00 | 0.00 | 34 | 1005.1 |
| 20260505003242 | 18 | 141 | 3.2 | 8.0 | 0.00 | 0.00 | 0.00 | 39 | 1005.2 |
| 20260505002745 | 18 | 135 | 3.2 | 11.3 | 0.00 | 0.00 | 0.00 | 37 | 1005.2 |
| 20260505002251 | 18 | 151 | 4.8 | 11.3 | 0.00 | 0.00 | 0.00 | 39 | 1005.2 |
| 20260505001756 | 17 | 195 | 1.6 | 9.7 | 0.00 | 0.00 | 0.00 | 37 | 1005.3 |
| 20260505001243 | 17 | 94 | 4.8 | 11.3 | 0.00 | 0.00 | 0.00 | 35 | 1005.4 |
| 20260505000748 | 17 | 64 | 4.8 | 8.0 | 0.00 | 0.00 | 0.00 | 35 | 1005.4 |
| 20260505000256 | 17 | 105 | 3.2 | 11.3 | 0.00 | 0.00 | 0.00 | 37 | 1005.3 |
| 20260504235758 | 17 | 164 | 3.2 | 9.7 | 0.00 | 0.00 | 0.00 | 39 | 1005.5 |
| 20260504235305 | 16 | 129 | 3.2 | 12.9 | 0.00 | 0.00 | 0.00 | 44 | 1005.6 |
| 20260504234745 | 16 | 114 | 3.2 | 12.9 | 0.00 | 0.00 | 0.00 | 42 | 1005.6 |
| 20260504234251 | 16 | 139 | 3.2 | 9.7 | 0.00 | 0.00 | 0.00 | 41 | 1005.7 |
| 20260504233753 | 16 | 112 | 3.2 | 8.0 | 0.00 | 0.00 | 0.00 | 42 | 1005.6 |
| 20260504233301 | 16 | 77 | 3.2 | 8.0 | 0.00 | 0.00 | 0.00 | 39 | 1005.6 |
| 20260504232745 | 16 | 112 | 4.8 | 16.1 | 0.00 | 0.00 | 0.00 | 39 | 1005.6 |
| 20260504232249 | 16 | 146 | 8.0 | 16.1 | 0.00 | 0.00 | 0.00 | 40 | 1005.6 |
| 20260504231753 | 17 | 120 | 9.7 | 29.0 | 0.00 | 0.00 | 0.00 | 39 | 1005.9 |
| 20260504231259 | 18 | 330 | 12.9 | 30.6 | 0.00 | 0.00 | 0.00 | 35 | 1005.9 |
| 20260504230742 | 20 | 331 | 11.3 | 29.0 | 0.00 | 0.00 | 0.00 | 32 | 1005.7 |
| 20260504230249 | 22 | 22 | 11.3 | 16.1 | 0.00 | 0.00 | 0.00 | 16 | 1005.5 |
| 20260504225813 | 23 | 22 | 4.8 | 9.7 | 0.00 | 0.00 | 0.00 | 17 | 1005.2 |
| 20260504225258 | 23 | 340 | 3.2 | 8.0 | 0.00 | 0.00 | 0.00 | 11 | 1005.0 |
| 20260504224742 | 23 | 6 | 3.2 | 8.0 | 0.00 | 0.00 | 0.00 | 13 | 1005.0 |
| 20260504224248 | 24 | 320 | 3.2 | 9.7 | 0.00 | 0.00 | 0.00 | 15 | 1004.9 |
| 20260504223749 | 25 | 28 | 3.2 | 12.9 | 0.00 | 0.00 | 0.00 | 12 | 1004.9 |
| 20260504223256 | 24 | 240 | 6.4 | 12.9 | 0.00 | 0.00 | 0.00 | 10 | 1005.0 |
| 20260504222757 | 25 | 54 | 4.8 | 14.5 | 0.00 | 0.00 | 0.00 | 12 | 1005.1 |
| 20260504222305 | 24 | 74 | 8.0 | 14.5 | 0.00 | 0.00 | 0.00 | 11 | 1005.1 |
| 20260504221807 | 24 | 19 | 6.4 | 17.7 | 0.00 | 0.00 | 0.00 | 15 | 1005.1 |
| 20260504221253 | 24 | 30 | 8.0 | 17.7 | 0.00 | 0.00 | 0.00 | 15 | 1005.2 |
| 20260504220757 | 24 | 83 | 6.4 | 11.3 | 0.00 | 0.00 | 0.00 | 13 | 1005.1 |
| 20260504220244 | 24 | 22 | 3.2 | 8.0 | 0.00 | 0.00 | 0.00 | 12 | 1005.2 |
| 20260504215746 | 23 | 8 | 4.8 | 11.3 | 0.00 | 0.00 | 0.00 | 11 | 1005.3 |
| 20260504215253 | 23 | 349 | 8.0 | 11.3 | 0.00 | 0.00 | 0.00 | 9 | 1005.3 |
| 20260504214817 | 24 | 347 | 6.4 | 9.7 | 0.00 | 0.00 | 0.00 | 10 | 1005.6 |
| 20260504214303 | 24 | 254 | 3.2 | 17.7 | 0.00 | 0.00 | 0.00 | 12 | 1005.7 |
| 20260504213746 | 25 | 295 | 6.4 | 17.7 | 0.00 | 0.00 | 0.00 | 8 | 1005.8 |
| 20260504213252 | 25 | 197 | 6.4 | 16.1 | 0.00 | 0.00 | 0.00 | 9 | 1005.9 |
| 20260504212757 | 25 | 248 | 3.2 | 6.4 | 0.00 | 0.00 | 0.00 | 12 | 1005.9 |
| 20260504212243 | 25 | 360 | 3.2 | 8.0 | 0.00 | 0.00 | 0.00 | 10 | 1006.0 |
| 20260504211747 | 25 | 53 | 3.2 | 11.3 | 0.00 | 0.00 | 0.00 | 15 | 1006.1 |
| 20260504211253 | 25 | 45 | 6.4 | 11.3 | 0.00 | 0.00 | 0.00 | 11 | 1006.2 |
| 20260504210756 | 25 | 99 | 4.8 | 9.7 | 0.00 | 0.00 | 0.00 | 12 | 1006.2 |
| 20260504210302 | 25 | 124 | 3.2 | 11.3 | 0.00 | 0.00 | 0.00 | 10 | 1006.3 |
| 20260504205805 | 25 | 268 | 4.8 | 16.1 | 0.00 | 0.00 | 0.00 | 8 | 1006.3 |
| 20260504205250 | 25 | 185 | 3.2 | 19.3 | 0.00 | 0.00 | 0.00 | 11 | 1006.6 |
| 20260504204754 | 25 | 303 | 8.0 | 19.3 | 0.00 | 0.00 | 0.00 | 9 | 1006.5 |
| 20260504204259 | 25 | 241 | 8.0 | 17.7 | 0.00 | 0.00 | 0.00 | 10 | 1006.5 |
| 20260504203802 | 25 | 347 | 3.2 | 12.9 | 0.00 | 0.00 | 0.00 | 10 | 1006.5 |
| 20260504203247 | 25 | 308 | 3.2 | 14.5 | 0.00 | 0.00 | 0.00 | 11 | 1006.7 |
| 20260504202750 | 25 | 222 | 4.8 | 16.1 | 0.00 | 0.00 | 0.00 | 10 | 1006.7 |
| 20260504202319 | 25 | 297 | 3.2 | 17.7 | 0.00 | 0.00 | 0.00 | 11 | 1006.6 |
| 20260504201743 | 24 | 274 | 6.4 | 14.5 | 0.00 | 0.00 | 0.00 | 12 | 1006.8 |
| 20260504201312 | 25 | 185 | 8.0 | 14.5 | 0.00 | 0.00 | 0.00 | 12 | 1006.8 |
| 20260504200754 | 25 | 218 | 3.2 | 14.5 | 0.00 | 0.00 | 0.00 | 13 | 1006.9 |
| 20260504200320 | 25 | 279 | 3.2 | 6.4 | 0.00 | 0.00 | 0.00 | 14 | 1006.8 |
| 20260504195803 | 24 | 18 | 1.6 | 9.7 | 0.00 | 0.00 | 0.00 | 14 | 1007.0 |
| 20260504195248 | 24 | 243 | 3.2 | 8.0 | 0.00 | 0.00 | 0.00 | 13 | 1007.1 |
| 20260504194812 | 24 | 218 | 3.2 | 11.3 | 0.00 | 0.00 | 0.00 | 12 | 1007.1 |
| 20260504194258 | 24 | 185 | 4.8 | 11.3 | 0.00 | 0.00 | 0.00 | 12 | 1007.1 |
| 20260504193743 | 23 | 292 | 3.2 | 11.3 | 0.00 | 0.00 | 0.00 | 12 | 1007.2 |
| 20260504193249 | 23 | 104 | 6.4 | 11.3 | 0.00 | 0.00 | 0.00 | 13 | 1007.3 |
| 20260504192753 | 23 | 205 | 3.2 | 8.0 | 0.00 | 0.00 | 0.00 | 13 | 1007.4 |
| 20260504192300 | 23 | 66 | 3.2 | 8.0 | 0.00 | 0.00 | 0.00 | 13 | 1007.4 |
| 20260504191743 | 23 | 116 | 3.2 | 8.0 | 0.00 | 0.00 | 0.00 | 16 | 1007.6 |
| 20260504191251 | 23 | 325 | 3.2 | 12.9 | 0.00 | 0.00 | 0.00 | 14 | 1007.6 |
| 20260504190755 | 23 | 163 | 6.4 | 12.9 | 0.00 | 0.00 | 0.00 | 12 | 1007.6 |
| 20260504190300 | 22 | 32 | 3.2 | 12.9 | 0.00 | 0.00 | 0.00 | 16 | 1007.7 |
| 20260504185742 | 22 | 164 | 6.4 | 12.9 | 0.00 | 0.00 | 0.00 | 15 | 1007.7 |
| 20260504185248 | 22 | 133 | 4.8 | 12.9 | 0.00 | 0.00 | 0.00 | 13 | 1007.8 |
| 20260504184751 | 22 | 185 | 6.4 | 12.9 | 0.00 | 0.00 | 0.00 | 13 | 1007.9 |
| 20260504184257 | 22 | 175 | 6.4 | 12.9 | 0.00 | 0.00 | 0.00 | 15 | 1007.9 |
| 20260504183741 | 22 | 87 | 3.2 | 9.7 | 0.00 | 0.00 | 0.00 | 17 | 1007.9 |
| 20260504183248 | 22 | 25 | 6.4 | 8.0 | 0.00 | 0.00 | 0.00 | 17 | 1008.1 |
| 20260504182751 | 22 | 106 | 3.2 | 12.9 | 0.00 | 0.00 | 0.00 | 16 | 1008.2 |
| 20260504182257 | 22 | 114 | 4.8 | 12.9 | 0.00 | 0.00 | 0.00 | 18 | 1008.1 |
| 20260504181741 | 21 | 143 | 3.2 | 12.9 | 0.00 | 0.00 | 0.00 | 17 | 1008.1 |
| 20260504181306 | 21 | 279 | 6.4 | 12.9 | 0.00 | 0.00 | 0.00 | 17 | 1008.2 |
| 20260504180810 | 21 | 124 | 4.8 | 9.7 | 0.00 | 0.00 | 0.00 | 17 | 1008.3 |
| 20260504180253 | 21 | 148 | 3.2 | 8.0 | 0.00 | 0.00 | 0.00 | 17 | 1008.3 |
| 20260504175755 | 21 | 185 | 1.6 | 8.0 | 0.00 | 0.00 | 0.00 | 17 | 1008.4 |
| 20260504175304 | 21 | 77 | 3.2 | 11.3 | 0.00 | 0.00 | 0.00 | 20 | 1008.5 |
| 20260504174746 | 20 | 6 | 4.8 | 11.3 | 0.00 | 0.00 | 0.00 | 16 | 1008.5 |
| 20260504174252 | 20 | 185 | 4.8 | 9.7 | 0.00 | 0.00 | 0.00 | 18 | 1008.6 |
| 20260504173254 | 20 | 237 | 3.2 | 8.0 | 0.00 | 0.00 | 0.00 | 17 | 1008.6 |
| 20260504172758 | 20 | 80 | 3.2 | 8.0 | 0.00 | 0.00 | 0.00 | 19 | 1008.7 |
| 20260504172245 | 20 | 345 | 6.4 | 11.3 | 0.00 | 0.00 | 0.00 | 17 | 1008.7 |
| 20260504171749 | 20 | 22 | 3.2 | 9.7 | 0.00 | 0.00 | 0.00 | 21 | 1008.6 |
| 20260504171258 | 19 | 299 | 1.6 | 6.4 | 0.00 | 0.00 | 0.00 | 20 | 1008.6 |
| 20260504170741 | 19 | 250 | 3.2 | 8.0 | 0.00 | 0.00 | 0.00 | 20 | 1008.6 |
| 20260504170247 | 18 | 276 | 1.6 | 8.0 | 0.00 | 0.00 | 0.00 | 20 | 1008.6 |
| 20260504160249 | 15 | 9 | 3.2 | 8.0 | 0.00 | 0.00 | 0.00 | 34 | 1008.8 |
| 20260504150758 | 11 | 107 | 1.6 | 4.8 | 0.00 | 0.00 | 0.00 | 41 | 1009.1 |
| 20260504150244 | 11 | 26 | 3.2 | 4.8 | 0.00 | 0.00 | 0.00 | 40 | 1009.1 |
| 20260504141251 | 6 | 93 | 1.6 | 3.2 | 0.00 | 0.00 | 0.00 | 60 | 1009.4 |
| 20260504140756 | 5 | 216 | 0.0 | 3.2 | 0.00 | 0.00 | 0.00 | 63 | 1009.4 |
| 20260504140302 | 5 | 263 | 0.0 | 1.6 | 0.00 | 0.00 | 0.00 | 64 | 1009.2 |
| 20260504130756 | 0 | 347 | 0.0 | 0.0 | 0.00 | 0.00 | 0.00 | 65 | 1008.9 |
| 20260504130302 | 0 | 347 | 0.0 | 1.6 | 0.00 | 0.00 | 0.00 | 64 | 1008.8 |
| 20260504120310 | 0 | 347 | 0.0 | 1.6 | 0.00 | 0.00 | 0.00 | 60 | 1008.8 |
| 20260504110301 | 1 | 347 | 1.6 | 3.2 | 0.00 | 0.00 | 0.00 | 57 | 1008.8 |
| 20260504100254 | 3 | 347 | 0.0 | 3.2 | 0.00 | 0.00 | 0.00 | 54 | 1008.7 |
| 20260504081744 | 6 | 347 | 1.6 | 4.8 | 0.00 | 0.00 | 0.00 | 43 | 1008.9 |
| 20260504081252 | 7 | 347 | 1.6 | 3.2 | 0.00 | 0.00 | 0.00 | 42 | 1008.9 |
| 20260504080816 | 7 | 347 | 0.0 | 1.6 | 0.00 | 0.00 | 0.00 | 42 | 1009.1 |
| 20260504080323 | 7 | 347 | 0.0 | 3.2 | 0.00 | 0.00 | 0.00 | 40 | 1009.1 |
| 20260504070253 | 10 | 162 | 4.8 | 9.7 | 0.00 | 0.00 | 0.00 | 31 | 1008.7 |